Debrecen, Hungary

2:28 PM CET on February 22, 2017 (GMT +0100)
Debrecen

Weather History for LHDC - February, 2013

Change the Weather History Date:

Thursday, February 28, 2013

  Actual Average Record
Temperature  
Mean Temperature 38 °F -  
Max Temperature 48 °F 50 °F - ()
Min Temperature 27 °F 33 °F - ()
Degree Days  
Heating Degree Days 28    
Moisture  
Dew Point 32 °F    
Average Humidity 72    
Maximum Humidity 87    
Minimum Humidity 53    
Precipitation  
Precipitation 0.00 in 0.04 in - ()
Sea Level Pressure  
Sea Level Pressure 30.31 in    
Wind  
Wind Speed 3 mph ()    
Max Wind Speed 8 mph    
Max Gust Speed -    
Visibility 5.4 miles    
Events      
T = Trace of Precipitation, MM = Missing Value Source: Averaged Metar Reports

Daily Weather History Graph

Daily Weather History Graph

Search for Another Location

Airport or City:

Trip Planner

Search our weather history database for the weather conditions in past years. The results will help you decide how hot, cold, wet, or windy it might be!

Date:

Astronomy

Feb. 28, 2013 Rise Set
Actual Time 6:15 AM CET 5:17 PM CET
Civil Twilight 5:45 AM CET 5:47 PM CET
Nautical Twilight 5:09 AM CET 6:23 PM CET
Astronomical Twilight 4:33 AM CET 6:59 PM CET
Moon 8:41 PM CET (2/28) 7:00 AM CET (2/28)
Length of Visible Light 12h 02m
Length of Day
11h 01m
Waning Gibbous, 92% of the Moon is Illuminated
Feb 28
Waning Gibbous
Mar 4
Last Quarter
Mar 11
New
Mar 19
First Quarter
Mar 27
Full

Hourly Weather History & Observations

Time (CET) Temp. Windchill Dew Point Humidity Pressure Visibility Wind Dir Wind Speed Gust Speed Precip Events Conditions
1:00 AM 32 °F - 28 °F 77% 30.33 in - NE 2.2 mph - -  
5:15 AM 32.0 °F - 28.4 °F 87% 30.30 in 6.2 mi North 2.3 mph - N/A   Mostly Cloudy
5:45 AM 33.8 °F - 26.6 °F 75% 30.30 in 6.2 mi NNE 2.3 mph - N/A   Mostly Cloudy
6:00 AM - - - N/A% - 6.2 mi NNE 5.8 mph - N/A   Mostly Cloudy
6:15 AM 32.0 °F - 26.6 °F 80% 30.30 in 5.0 mi Calm Calm - N/A   Mostly Cloudy
7:00 AM 31 °F - 26 °F 74% 30.34 in 4 mi Calm Calm - -   Partly Cloudy
7:36 AM 32.0 °F 28.7 °F 28.4 °F 87% 30.36 in - East 3.5 mph - N/A   Partly Cloudy
7:45 AM 32.0 °F 28.7 °F 28.4 °F 87% 30.33 in - East 3.5 mph - N/A   Partly Cloudy
8:15 AM 33.8 °F 30.8 °F 28.4 °F 81% 30.33 in - ESE 3.5 mph - N/A   Partly Cloudy
8:45 AM 35.6 °F - 28.4 °F 75% 30.33 in 4.3 mi Calm Calm - N/A   Mostly Cloudy
9:00 AM - - - N/A% - - Variable 3.5 mph - N/A   Dust Whirls
9:15 AM 39.2 °F - 32.0 °F 75% 30.36 in 3.7 mi West 2.3 mph - N/A   Mostly Cloudy
9:45 AM 41.0 °F - 33.8 °F 76% 30.36 in 4.3 mi West 2.3 mph - N/A   Mostly Cloudy
10:15 AM 42.8 °F 40.1 °F 33.8 °F 70% 30.36 in 3.7 mi West 4.6 mph - N/A   Scattered Clouds
10:45 AM 42.8 °F 39.3 °F 35.6 °F 76% 30.36 in 3.7 mi WSW 5.8 mph - N/A   Mostly Cloudy
11:15 AM 44.6 °F 41.4 °F 35.6 °F 71% 30.33 in 5.0 mi SW 5.8 mph - N/A   Mostly Cloudy
11:45 AM 44.6 °F 40.7 °F 35.6 °F 71% 30.33 in 5.0 mi WSW 6.9 mph - N/A   Mostly Cloudy
12:00 PM - - - N/A% - 5.0 mi Variable 3.5 mph - N/A   Mostly Cloudy
12:15 PM 44.6 °F 41.4 °F 33.8 °F 66% 30.33 in 6.2 mi SW 5.8 mph - N/A   Partly Cloudy
12:45 PM 46.4 °F 43.5 °F 33.8 °F 62% 30.30 in 6.2 mi SW 5.8 mph - N/A   Partly Cloudy
1:00 PM 46 °F - 34 °F 53% 30.32 in 6 mi SW 6.7 mph - -   Partly Cloudy
1:15 PM 46.4 °F 42.9 °F 33.8 °F 62% 30.30 in 6.2 mi SW 6.9 mph - N/A   Partly Cloudy
1:45 PM 48.2 °F - 35.6 °F 62% 30.30 in 6.2 mi SSW 8.1 mph - N/A   Partly Cloudy
2:15 PM 46.4 °F 42.9 °F 35.6 °F 66% 30.27 in 6.2 mi SW 6.9 mph - N/A   Partly Cloudy
2:45 PM 46.4 °F 42.9 °F 35.6 °F 66% 30.27 in 6.2 mi SW 6.9 mph - N/A   Partly Cloudy
3:15 PM 48.2 °F - 35.6 °F 62% 30.27 in 6.2 mi SW 8.1 mph - N/A   Scattered Clouds
4:15 PM 46.4 °F 42.4 °F 35.6 °F 66% 30.27 in 6.2 mi SSW 8.1 mph - N/A   Scattered Clouds
4:45 PM 46.4 °F 42.4 °F 35.6 °F 66% 30.27 in 6.2 mi SW 8.1 mph - N/A   Scattered Clouds
5:00 PM - - - N/A% - - North - - N/A   Unknown
7:00 PM 37 °F - 34 °F 85% 30.27 in - SSW 6.7 mph - -